CST,Max TemperatureF,Mean TemperatureF,Min TemperatureF,Max Dew PointF,MeanDew PointF,Min DewpointF,Max Humidity, Mean Humidity, Min Humidity, Max Sea Level PressureIn, Mean Sea Level PressureIn, Min Sea Level PressureIn, Max VisibilityMiles, Mean VisibilityMiles, Min VisibilityMiles, Max Wind SpeedMPH, Mean Wind SpeedMPH, Max Gust SpeedMPH,PrecipitationIn, CloudCover, Events, WindDirDegrees
2012-11-1,88,68,48,43,40,36,71,45,17,29.99,29.92,29.84,10,10,10,14,5,22,0.00,0,,228
2012-11-2,87,70,53,54,47,41,66,48,24,29.91,29.84,29.76,10,10,10,23,10,31,0.00,0,,213
2012-11-3,72,60,50,48,37,33,63,45,27,30.12,30.04,29.88,10,10,10,18,12,21,0.00,0,,28
2012-11-4,71,56,43,35,33,31,68,43,26,30.18,30.10,30.02,10,10,9,10,6,,0.00,0,,3
2012-11-5,73,60,46,38,33,28,61,39,20,30.10,30.06,30.04,10,10,10,22,9,29,0.00,0,,360
2012-11-6,78,60,41,38,35,31,70,47,22,30.12,30.08,30.01,10,10,10,13,3,,0.00,0,,337
2012-11-7,75,60,45,38,35,31,66,44,20,30.17,30.06,29.97,10,10,10,16,7,,0.00,0,,111
2012-11-8,84,65,46,54,45,21,71,50,28,29.97,29.87,29.76,10,10,10,25,12,31,0.00,0,,153
2012-11-9,86,74,61,58,54,51,83,55,32,29.85,29.79,29.70,10,10,10,26,16,33,0.00,0,,179
2012-11-10,84,72,60,58,55,53,81,58,37,29.84,29.72,29.62,10,10,10,29,18,38,0.00,1,,170
2012-11-11,68,52,34,59,43,24,87,68,52,30.29,29.91,29.64,10,10,8,25,16,28,0.05,5,Rain-Thunderstorm,338
2012-11-12,54,41,28,24,20,15,75,49,22,30.51,30.44,30.32,10,10,10,9,5,,0.00,0,,260
2012-11-13,59,43,27,25,19,13,69,43,16,30.47,30.37,30.25,10,10,10,17,8,24,0.00,0,,153
2012-11-14,64,47,30,24,22,18,69,42,16,30.36,30.28,30.20,10,10,10,12,7,,0.00,0,,174
2012-11-15,64,49,34,43,32,22,67,55,43,30.30,30.22,30.15,10,10,10,12,8,17,0.00,1,,129
2012-11-16,64,52,39,33,31,28,68,48,29,30.39,30.32,30.28,10,10,10,12,9,,0.00,1,,99
2012-11-17,68,52,37,34,29,25,70,46,26,30.35,30.26,30.19,10,10,10,15,8,22,0.00,0,,140
2012-11-18,72,58,45,55,40,28,83,50,34,30.18,30.11,30.04,10,10,10,24,12,32,0.02,5,Rain,162
2012-11-19,77,64,52,53,48,42,86,64,31,30.10,30.06,30.00,10,10,9,15,9,,0.00,2,,181
2012-11-20,77,60,44,54,48,43,93,72,38,30.20,30.14,30.08,10,8,2,10,8,,0.00,0,,57
2012-11-21,78,62,45,52,46,42,90,62,30,30.20,30.11,29.98,10,10,10,17,9,23,0.00,0,,143
2012-11-22,80,70,59,52,47,36,69,51,34,30.12,29.95,29.85,10,10,10,32,15,40,0.00,0,,194
2012-11-23,60,48,37,35,24,18,56,36,20,30.49,30.40,30.16,10,10,10,28,18,36,0.00,0,,24
2012-11-24,64,48,33,23,20,16,61,38,15,30.41,30.20,29.96,10,9,5,21,6,23,0.00,0,,187
2012-11-25,70,53,36,35,28,20,59,42,23,29.94,29.82,29.76,10,10,10,15,8,20,0.00,0,,186
2012-11-26,59,48,37,34,29,19,73,52,33,30.35,30.04,29.76,10,10,10,31,15,37,0.00,0,,358
2012-11-27,53,42,30,27,23,21,75,55,32,30.47,30.36,30.28,10,10,10,14,9,,0.00,0,,81
2012-11-28,69,50,30,38,32,23,79,55,29,30.32,30.22,30.11,10,10,10,18,9,,0.00,0,,144
2012-11-29,72,56,39,46,41,27,86,61,37,30.36,30.04,29.94,10,10,10,21,11,26,0.00,0,,163
2012-11-30,77,60,42,50,45,41,100,74,29,30.02,29.95,29.89,10,7,0,15,9,24,0.00,0,Fog,155